�������l�o���
Date,Time,MP-1(��Sv/h),MP-2(��Sv/h),MP-3(��Sv/h),MP-4(��Sv/h),MP-5(��Sv/h),MP-6(��Sv/h),MP-7(��Sv/h),MP-8(��Sv/h),����,����(m/s),���J
2018/02/04,00:00,0.856,1.425,0.896,1.631,1.145,0.479,0.853,0.827,�k��,9.0,��
2018/02/04,00:10,0.856,1.424,0.895,1.632,1.144,0.481,0.855,0.828,�k��,7.2,��
2018/02/04,00:20,0.859,1.419,0.894,1.632,1.142,0.479,0.854,0.826,���k��,7.1,��
2018/02/04,00:30,0.858,1.427,0.892,1.632,1.143,0.481,0.854,0.827,���k��,6.1,��
2018/02/04,00:40,0.859,1.426,0.895,1.632,1.143,0.480,0.854,0.826,�k��,4.5,��
2018/02/04,00:50,0.857,1.426,0.896,1.630,1.144,0.480,0.854,0.826,�k��,5.5,��
2018/02/04,01:00,0.859,1.424,0.892,1.631,1.142,0.481,0.855,0.828,�k��,6.7,��
2018/02/04,01:10,0.859,1.428,0.895,1.632,1.143,0.481,0.854,0.827,�k��,4.9,��
2018/02/04,01:20,0.856,1.425,0.894,1.632,1.142,0.481,0.853,0.828,�k�k��,6.5,��
2018/02/04,01:30,0.857,1.425,0.895,1.632,1.144,0.480,0.854,0.826,�k�k��,6.5,��
2018/02/04,01:40,0.856,1.425,0.896,1.631,1.145,0.479,0.855,0.829,�k�k��,6.1,��
2018/02/04,01:50,0.858,1.427,0.894,1.632,1.144,0.481,0.854,0.828,�k�k��,5.3,��
2018/02/04,02:00,0.857,1.424,0.897,1.631,1.143,0.480,0.854,0.826,�k�k��,4.9,��
2018/02/04,02:10,0.857,1.426,0.895,1.629,1.144,0.479,0.853,0.828,�k�k��,5.2,��
2018/02/04,02:20,0.858,1.427,0.894,1.631,1.143,0.481,0.855,0.825,�k��,4.0,��
2018/02/04,02:30,0.857,1.426,0.895,1.633,1.146,0.479,0.856,0.827,�k��,4.9,��
2018/02/04,02:40,0.859,1.428,0.894,1.631,1.144,0.481,0.855,0.826,���k��,6.8,��
2018/02/04,02:50,0.858,1.424,0.895,1.633,1.144,0.480,0.853,0.827,���k��,7.6,��
2018/02/04,03:00,0.858,1.425,0.893,1.630,1.145,0.479,0.854,0.827,�k��,4.6,��
2018/02/04,03:10,0.859,1.426,0.892,1.634,1.141,0.479,0.856,0.828,�k��,5.7,��
2018/02/04,03:20,0.859,1.425,0.895,1.632,1.146,0.480,0.854,0.826,���k��,5.3,��
2018/02/04,03:30,0.857,1.429,0.895,1.634,1.146,0.480,0.854,0.826,���k��,5.1,��
2018/02/04,03:40,0.856,1.426,0.895,1.632,1.144,0.481,0.854,0.828,�k��,5.5,��
2018/02/04,03:50,0.857,1.424,0.893,1.635,1.144,0.481,0.855,0.827,�k��,5.6,��
2018/02/04,04:00,0.856,1.425,0.894,1.635,1.142,0.480,0.853,0.828,�k��,5.0,��
2018/02/04,04:10,0.858,1.427,0.894,1.632,1.144,0.482,0.854,0.827,�k��,6.0,��
2018/02/04,04:20,0.856,1.428,0.894,1.634,1.144,0.480,0.852,0.827,���k��,6.7,��
2018/02/04,04:30,0.860,1.427,0.895,1.633,1.144,0.479,0.855,0.825,���k��,6.1,��
2018/02/04,04:40,0.858,1.429,0.896,1.633,1.146,0.481,0.854,0.829,���k��,6.2,��
2018/02/04,04:50,0.859,1.427,0.895,1.634,1.142,0.481,0.856,0.826,���k��,8.3,��
2018/02/04,05:00,0.858,1.425,0.896,1.637,1.143,0.480,0.854,0.826,���k��,8.2,��
2018/02/04,05:10,0.857,1.426,0.894,1.634,1.144,0.479,0.855,0.827,���k��,6.8,��
2018/02/04,05:20,0.859,1.428,0.896,1.634,1.145,0.479,0.854,0.829,�k��,6.1,��
2018/02/04,05:30,0.856,1.425,0.898,1.636,1.146,0.480,0.856,0.827,�k��,4.2,��
2018/02/04,05:40,0.856,1.425,0.896,1.634,1.145,0.480,0.855,0.827,�k��,5.1,��
2018/02/04,05:50,0.858,1.427,0.894,1.634,1.145,0.482,0.855,0.826,�k�k��,3.2,��
2018/02/04,06:00,0.858,1.427,0.894,1.635,1.142,0.480,0.854,0.829,�k�k��,2.6,��
2018/02/04,06:10,0.856,1.424,0.894,1.634,1.144,0.479,0.854,0.827,�k��,2.5,��
2018/02/04,06:20,0.857,1.427,0.896,1.635,1.144,0.479,0.856,0.827,���k��,2.0,��
2018/02/04,06:30,0.859,1.428,0.894,1.634,1.143,0.479,0.854,0.826,�k�k��,2.0,��
2018/02/04,06:40,0.857,1.427,0.895,1.635,1.145,0.480,0.851,0.825,�k,3.2,��
2018/02/04,06:50,0.855,1.427,0.897,1.634,1.146,0.481,0.852,0.827,�k,3.3,��
2018/02/04,07:00,0.858,1.425,0.895,1.635,1.145,0.482,0.853,0.825,�k,4.2,��
2018/02/04,07:10,0.859,1.426,0.895,1.636,1.145,0.480,0.854,0.828,�k,4.2,��
2018/02/04,07:20,0.857,1.428,0.896,1.636,1.145,0.479,0.851,0.827,�k,4.2,��
2018/02/04,07:30,0.859,1.425,0.897,1.635,1.144,0.479,0.855,0.827,�k�k��,4.6,��
2018/02/04,07:40,0.857,1.425,0.897,1.634,1.143,0.479,0.854,0.825,�k�k��,4.4,��
2018/02/04,07:50,0.859,1.426,0.897,1.636,1.143,0.479,0.854,0.827,�k�k��,3.5,��
2018/02/04,08:00,0.856,1.430,0.894,1.634,1.144,0.479,0.855,0.826,�k�k��,2.9,��
2018/02/04,08:10,0.858,1.429,0.895,1.634,1.143,0.479,0.853,0.826,�k�k��,2.0,��
2018/02/04,08:20,0.859,1.428,0.896,1.638,1.144,0.480,0.852,0.826,�k,2.3,��
2018/02/04,08:30,0.858,1.429,0.894,1.637,1.143,0.480,0.853,0.827,�k,1.5,��
2018/02/04,08:40,0.858,1.426,0.897,1.635,1.145,0.481,0.854,0.828,�k�k��,1.8,��
2018/02/04,08:50,0.859,1.427,0.896,1.639,1.144,0.478,0.855,0.826,�k�k��,1.2,��
2018/02/04,09:00,0.857,1.428,0.894,1.636,1.145,0.481,0.854,0.828,-,CALM,��
2018/02/04,09:10,0.853,1.429,0.896,1.637,1.144,0.480,0.854,0.826,��쓌,0.6,��
2018/02/04,09:20,0.859,1.430,0.894,1.637,1.145,0.481,0.854,0.827,��쓌,1.5,��
2018/02/04,09:30,0.860,1.428,0.897,1.637,1.147,0.482,0.856,0.827,��쓌,2.0,��
2018/02/04,09:40,0.861,1.431,0.897,1.636,1.148,0.481,0.854,0.827,�쓌,2.3,��
2018/02/04,09:50,0.858,1.430,0.897,1.635,1.146,0.481,0.855,0.827,�쓌,1.8,��
2018/02/04,10:00,0.861,1.432,0.898,1.638,1.147,0.481,0.855,0.829,�쓌,3.2,��
2018/02/04,10:10,0.860,1.432,0.898,1.636,1.144,0.481,0.852,0.829,�쓌,2.0,��
2018/02/04,10:20,0.860,1.432,0.897,1.638,1.146,0.482,0.852,0.827,���쓌,2.9,��
2018/02/04,10:30,0.861,1.428,0.897,1.638,1.149,0.480,0.853,0.828,�쓌,2.6,��
2018/02/04,10:40,0.862,1.430,0.898,1.639,1.148,0.482,0.854,0.829,���쓌,2.6,��
2018/02/04,10:50,0.862,1.432,0.897,1.638,1.147,0.482,0.852,0.828,���쓌,2.0,��
2018/02/04,11:00,0.862,1.426,0.899,1.639,1.150,0.482,0.854,0.828,���쓌,3.9,��
2018/02/04,11:10,0.860,1.429,0.896,1.639,1.147,0.482,0.852,0.829,�쓌,4.2,��
2018/02/04,11:20,0.864,1.431,0.897,1.639,1.148,0.482,0.855,0.830,�쓌,5.1,��
2018/02/04,11:30,0.864,1.431,0.898,1.642,1.148,0.481,0.854,0.827,�쓌,4.4,��
2018/02/04,11:40,0.864,1.433,0.899,1.640,1.150,0.481,0.854,0.829,�쓌,3.8,��
2018/02/04,11:50,0.864,1.432,0.897,1.642,1.151,0.482,0.853,0.828,���쓌,3.5,�L
2018/02/04,12:00,0.864,1.433,0.897,1.639,1.150,0.483,0.854,0.828,���쓌,3.6,�L
2018/02/04,12:10,0.865,1.433,0.899,1.641,1.150,0.482,0.854,0.829,���쓌,3.8,��
2018/02/04,12:20,0.866,1.433,0.897,1.643,1.150,0.482,0.852,0.830,���쓌,4.3,��
2018/02/04,12:30,0.867,1.436,0.897,1.642,1.153,0.482,0.853,0.829,�쓌,3.5,��
2018/02/04,12:40,0.865,1.434,0.898,1.641,1.150,0.485,0.855,0.829,�쓌,4.0,��
2018/02/04,12:50,0.866,1.434,0.898,1.642,1.150,0.483,0.852,0.829,�쓌,3.6,��
2018/02/04,13:00,0.865,1.432,0.900,1.642,1.152,0.483,0.853,0.831,���쓌,3.5,��
2018/02/04,13:10,0.865,1.434,0.901,1.641,1.147,0.481,0.855,0.832,�쓌,4.4,��
2018/02/04,13:20,0.866,1.435,0.901,1.644,1.152,0.484,0.856,0.831,���쓌,3.3,��
2018/02/04,13:30,0.866,1.435,0.902,1.644,1.152,0.485,0.855,0.831,���쓌,3.7,��
2018/02/04,13:40,0.866,1.438,0.902,1.646,1.154,0.485,0.855,0.829,���쓌,3.2,��
2018/02/04,13:50,0.866,1.441,0.899,1.643,1.153,0.485,0.855,0.827,��,2.2,��
2018/02/04,14:00,0.867,1.436,0.901,1.645,1.152,0.483,0.856,0.828,��쓌,3.4,��
2018/02/04,14:10,0.866,1.439,0.904,1.644,1.157,0.483,0.854,0.826,��쓌,4.0,��
2018/02/04,14:20,0.867,1.438,0.902,1.644,1.151,0.483,0.855,0.827,�쓌,3.8,��
2018/02/04,14:30,0.868,1.438,0.903,1.644,1.155,0.483,0.855,0.827,��쓌,3.3,��
2018/02/04,14:40,0.865,1.439,0.903,1.644,1.153,0.484,0.857,0.828,��쓌,2.8,��
2018/02/04,14:50,0.863,1.440,0.903,1.643,1.155,0.483,0.855,0.831,��쓌,3.1,��
2018/02/04,15:00,0.868,1.439,0.903,1.647,1.157,0.482,0.857,0.829,��쓌,4.0,��
2018/02/04,15:10,0.868,1.440,0.904,1.646,1.156,0.485,0.856,0.830,��쓌,4.8,��
2018/02/04,15:20,0.867,1.438,0.901,1.645,1.158,0.484,0.856,0.830,��쓌,4.0,��
2018/02/04,15:30,0.868,1.439,0.903,1.647,1.156,0.483,0.858,0.829,��쓌,3.6,��
2018/02/04,15:40,0.866,1.436,0.905,1.646,1.157,0.484,0.858,0.827,��쓌,3.3,��
2018/02/04,15:50,0.866,1.438,0.902,1.646,1.157,0.483,0.857,0.829,��쓌,1.7,��
2018/02/04,16:00,0.865,1.440,0.905,1.646,1.159,0.484,0.857,0.830,��쓌,2.9,��
2018/02/04,16:10,0.867,1.438,0.904,1.650,1.159,0.483,0.859,0.830,��쓌,2.5,��
2018/02/04,16:20,0.866,1.442,0.904,1.646,1.158,0.484,0.857,0.830,��,2.3,��
2018/02/04,16:30,0.867,1.437,0.904,1.646,1.155,0.483,0.858,0.830,���k��,5.1,��
2018/02/04,16:40,0.867,1.441,0.901,1.647,1.157,0.485,0.860,0.831,��,5.8,��
2018/02/04,16:50,0.868,1.441,0.901,1.646,1.156,0.484,0.857,0.830,���k��,4.9,��
2018/02/04,17:00,0.867,1.437,0.902,1.647,1.156,0.482,0.856,0.829,��,5.5,��
2018/02/04,17:10,0.866,1.436,0.904,1.647,1.155,0.485,0.858,0.829,���k��,4.4,��
2018/02/04,17:20,0.866,1.441,0.904,1.647,1.158,0.484,0.856,0.829,���k��,3.8,��
2018/02/04,17:30,0.866,1.439,0.903,1.649,1.153,0.484,0.857,0.830,���k��,3.5,��
2018/02/04,17:40,0.866,1.442,0.904,1.647,1.157,0.482,0.858,0.829,���k��,2.6,��
2018/02/04,17:50,0.867,1.440,0.900,1.648,1.155,0.483,0.857,0.829,���k��,2.6,��
2018/02/04,18:00,0.865,1.438,0.904,1.647,1.156,0.484,0.859,0.830,�k��,3.0,��
2018/02/04,18:10,0.863,1.441,0.902,1.649,1.158,0.483,0.858,0.829,���k��,3.5,��
2018/02/04,18:20,0.868,1.441,0.902,1.644,1.157,0.484,0.858,0.828,��,3.7,��
2018/02/04,18:30,0.865,1.439,0.902,1.650,1.156,0.484,0.858,0.828,���k��,3.7,��
2018/02/04,18:40,0.867,1.439,0.903,1.647,1.156,0.483,0.858,0.830,���k��,4.2,��
2018/02/04,18:50,0.865,1.440,0.904,1.648,1.157,0.483,0.857,0.831,���k��,4.6,��
2018/02/04,19:00,0.863,1.439,0.903,1.647,1.157,0.483,0.858,0.829,���k��,4.6,��
2018/02/04,19:10,0.864,1.440,0.903,1.649,1.156,0.482,0.858,0.829,���k��,4.3,��
2018/02/04,19:20,0.863,1.441,0.903,1.650,1.158,0.483,0.858,0.829,���k��,3.7,��
2018/02/04,19:30,0.865,1.439,0.904,1.649,1.157,0.483,0.857,0.829,��,4.1,��
2018/02/04,19:40,0.867,1.440,0.904,1.649,1.160,0.482,0.858,0.830,��,4.5,��
2018/02/04,19:50,0.866,1.440,0.904,1.651,1.156,0.483,0.857,0.829,��,4.4,��
2018/02/04,20:00,0.867,1.438,0.903,1.649,1.157,0.483,0.856,0.830,��,4.2,��
2018/02/04,20:10,0.863,1.441,0.905,1.647,1.156,0.484,0.857,0.830,��,4.3,��
2018/02/04,20:20,0.866,1.440,0.902,1.650,1.154,0.482,0.858,0.830,��,4.5,��
2018/02/04,20:30,0.865,1.438,0.903,1.649,1.155,0.483,0.857,0.829,��,4.6,��
2018/02/04,20:40,0.863,1.437,0.902,1.648,1.156,0.484,0.858,0.826,��,4.4,��
2018/02/04,20:50,0.866,1.442,0.902,1.647,1.157,0.483,0.859,0.830,��,3.7,��
2018/02/04,21:00,0.865,1.440,0.903,1.645,1.158,0.484,0.857,0.828,���k��,3.9,��
2018/02/04,21:10,0.863,1.438,0.902,1.648,1.155,0.482,0.856,0.829,���k��,5.0,��
2018/02/04,21:20,0.864,1.437,0.902,1.649,1.155,0.482,0.857,0.827,�k��,5.2,��
2018/02/04,21:30,0.865,1.439,0.900,1.649,1.159,0.481,0.856,0.829,���k��,5.7,��
2018/02/04,21:40,0.865,1.440,0.902,1.648,1.155,0.482,0.856,0.827,�k��,5.3,��
2018/02/04,21:50,0.866,1.438,0.902,1.648,1.155,0.482,0.858,0.829,�k��,3.7,��
2018/02/04,22:00,0.864,1.438,0.903,1.649,1.155,0.482,0.857,0.828,���k��,3.5,��
2018/02/04,22:10,0.863,1.439,0.900,1.647,1.155,0.483,0.855,0.827,���k��,3.9,��
2018/02/04,22:20,0.861,1.436,0.900,1.650,1.156,0.482,0.855,0.829,���k��,4.1,��
2018/02/04,22:30,0.865,1.440,0.903,1.648,1.155,0.481,0.857,0.828,�k��,3.6,��
2018/02/04,22:40,0.863,1.439,0.899,1.649,1.156,0.483,0.856,0.829,�k��,3.5,��
2018/02/04,22:50,0.862,1.440,0.901,1.649,1.154,0.480,0.856,0.829,�k��,4.2,��
2018/02/04,23:00,0.864,1.438,0.900,1.648,1.154,0.482,0.856,0.829,�k�k��,4.6,��
2018/02/04,23:10,0.862,1.439,0.901,1.649,1.152,0.482,0.855,0.828,�k��,4.7,��
2018/02/04,23:20,0.863,1.436,0.899,1.648,1.152,0.481,0.856,0.829,�k��,4.8,��
2018/02/04,23:30,0.863,1.438,0.901,1.651,1.153,0.481,0.856,0.828,�k�k��,4.0,��
2018/02/04,23:40,0.861,1.436,0.901,1.647,1.154,0.482,0.857,0.828,�k�k��,3.8,��
2018/02/04,23:50,0.861,1.437,0.899,1.646,1.153,0.482,0.856,0.827,�k�k��,3.5,��
